Overview Statistics Trail Chart Weather Telemetry Raw packets
 

This is the latest recevied weather packets stored in our database for station/object SP3ZBZ-13. If no packets are shown the sender has not sent any weather packets the latest 10 day(s).

<< 10 11 12 13 14 15 16 >>
Time Temp. Humidity Pressure Rain* Wind** Luminosity Snow
1788352598 20.56° C 59% 1014.5 hPa 2.29 mm - 534 W/m² -
1788351697 20.56° C 59% 1014.6 hPa 2.29 mm - 517 W/m² -
1788350795 20° C 59% 1014.7 hPa 2.29 mm - 539 W/m² -
1788349895 19.44° C 61% 1014.8 hPa 2.79 mm - 327 W/m² -
1788348993 20° C 64% 1014.9 hPa 3.05 mm - 275 W/m² -
1788348092 20° C 62% 1015 hPa 3.05 mm - 526 W/m² -
1788347192 19.44° C 63% 1015.1 hPa 3.05 mm - 522 W/m² -
1788346290 20° C 63% 1015.1 hPa 3.05 mm - 702 W/m² -
1788345389 19.44° C 63% 1015.1 hPa 3.05 mm - 705 W/m² -
1788344488 18.89° C 68% 1015.2 hPa 4.06 mm - 687 W/m² -
1788343588 19.44° C 65% 1015.2 hPa 4.06 mm - 152 W/m² -
1788342687 18.89° C 68% 1015.1 hPa 4.06 mm - 595 W/m² -
1788341786 17.78° C 70% 1015.1 hPa 4.06 mm - 121 W/m² -
1788340885 18.33° C 69% 1015.1 hPa 4.06 mm - 249 W/m² -
1788339993 18.33° C 69% 1015 hPa 4.06 mm - 236 W/m² -
1788339083 17.78° C 73% 1015 hPa 4.06 mm - 503 W/m² -
1788338183 17.78° C 73% 1015 hPa 4.06 mm - 336 W/m² -
1788337281 17.78° C 75% 1015 hPa 4.06 mm - 483 W/m² -
1788336381 17.22° C 75% 1015 hPa 4.06 mm - 366 W/m² -
1788335480 16.67° C 76% 1014.9 hPa 4.06 mm - 333 W/m² -
1788334579 16.67° C 79% 1014.8 hPa 4.06 mm - 343 W/m² -
1788333677 16.67° C 80% 1014.7 hPa 4.06 mm - 173 W/m² -
1788332776 16.11° C 81% 1014.7 hPa 4.06 mm - 303 W/m² -
1788331875 15.56° C 82% 1014.6 hPa 4.06 mm - 225 W/m² -
1788330974 15.56° C 82% 1014.5 hPa 4.06 mm - 161 W/m² -

* Rain latest 24 hours (hover to see other rain measurements)
** Current wind speed in m/s (hover to see current wind gust speed)